OPS 4682 DEB, 38391

Orbit data source: Space-Track

OPS 4682 DEB, 38391 is space debris in LEO originally from a launch on Sat, 03 Apr 1965 UTC launched from the Air Force Western Test Range (AFWTR). Debris objects in space refer to the collection of defunct objects orbiting the Earth. Examples of debris include non-operational satellites, rocket bodies, and fragments generated from explosions, collisions, or faulty payload assembly.

Loading next visibility...
Identifier
38391, 1965-027CU
Orbit
LEO
Country
Flag of USUS
Related business
Manufacturer
Unknown
Mission
Spacecraft
Bus & Motor
Unknown
Mass
Unknown
Launch date (UTC)
1965-04-03 (61 years ago)
Launch vehicle
Unknown
Launch site
Air Force Western Test Range (AFWTR)
Object type
Payload
Rocket body
Debris
Shape & HBR
Unknown shape, 0.1 m
Radar Cross Section
Medium (>0.1 m² and <1 m²)

Expand to show TLE details & history
Last TLE update: 1 day ago

TLE from 1 day ago
0 OPS 4682 DEB
1 38391U 65027CU  26174.82637318  .00000506  00000-0  16870-2 0  9997
2 38391  90.2234   8.0445 0045629  37.6879 322.7424 12.98440811600630
Epoch: 2026-06-23T19:49Z
TLE epoch observation values (Epoch: 2026-06-23T19:49:58.642Z)
Latitude
-0.00005°
Longitude
158.55779°
Altitude
1,243.367 km
Speed
7.246 km/s
True Right ascension
00h 32m 10s
True Declination
0° 00' 00"
Sunlit
Object was in daylight at epoch
Visualization orbit readout
Latitude
Unknown
Longitude
Unknown
Altitude
Unknown
Speed
Unknown
Apparent Right ascension
Unknown
Apparent Declination
Unknown
Sunlit
N/A
Visualization observer readout
Local Sidereal Time
06:51:24
Azimuth
Unknown
Elevation
Unknown
Doppler factor
Unknown
Orbital elements
Apogee altitude
1,300.207 km
Perigee altitude
1,230.455 km
Semi-major axis
7,643.468 km
Eccentricity
0.00456
Inclination
90.2234°
RAAN
8.0445°
Arg. of periapsis
37.6879°
True anomaly
322.42441°
Mean anomaly
322.7424°
Eccentric anomaly
322.58355°
Mean motion
3.24794 °/min
Orbital period
110.84 mins
BSTAR
0.001687
Loading maneuver chart data...
Computing Atmospheric mass density...
Loading historical data...
Loading historical data...
Loading historical data...
Loading historical data...
Loading historical data...
Loading historical data...
Loading historical data...

Documentation

Showing up to 5 results
|